Date,TemperatureHighF,TemperatureAvgF,TemperatureLowF,DewpointHighF,DewpointAvgF,DewpointLowF,HumidityHigh,HumidityAvg,HumidityLow,PressureMaxIn,PressureMinIn,WindSpeedMaxMPH,WindSpeedAvgMPH,GustSpeedMaxMPH,PrecipitationSumIn
2013-9-1,82.0,74.1,68.9,59.2,54.6,46.9,70,53,31,29.82,29.79,5,1,7,0.01
2013-9-2,78.7,70.9,64.7,59.4,54.5,46.3,78,57,39,29.87,29.80,7,1,10,0.00
2013-9-3,81.6,70.0,62.2,58.6,52.6,46.7,72,55,43,29.93,29.86,4,1,7,0.00
2013-9-4,82.2,70.8,62.3,56.0,51.3,45.9,72,51,36,29.97,29.88,4,1,11,0.00
2013-9-5,67.0,65.1,63.5,49.8,47.2,43.5,59,52,44,29.89,29.86,4,1,7,0.00
2013-9-6,87.8,73.2,63.2,43.5,40.2,32.3,45,32,16,29.97,29.83,4,1,6,0.00
2013-9-7,90.3,78.9,69.5,47.3,40.9,33.7,40,26,17,29.85,29.78,4,1,8,0.00
2013-9-8,92.5,81.2,71.5,47.8,41.3,36.3,36,25,18,29.83,29.73,4,1,5,0.00
2013-9-9,95.0,84.9,75.3,48.6,40.7,33.3,31,22,16,29.76,29.63,5,1,8,0.00
2013-9-10,95.3,83.5,73.2,55.1,44.5,34.0,53,27,16,29.75,29.65,5,1,6,0.00
2013-9-11,80.8,72.6,66.1,57.1,53.5,49.0,65,52,40,29.90,29.75,3,0,5,0.00
2013-9-12,82.3,72.1,61.8,56.7,54.4,52.5,74,55,41,29.92,29.82,3,0,6,0.00
2013-9-13,85.7,75.8,66.5,59.4,56.2,52.7,62,51,40,29.86,29.69,4,0,5,0.00
2013-9-14,86.9,76.7,69.0,58.1,55.4,50.6,60,49,34,29.73,29.64,3,0,6,0.00
2013-9-15,81.5,73.6,66.0,52.3,43.9,33.7,50,36,20,29.78,29.65,5,1,9,0.00
2013-9-16,82.0,70.7,62.4,48.4,42.7,36.3,51,37,25,29.84,29.72,4,1,7,0.00
2013-9-17,71.1,65.4,57.7,51.6,47.6,42.7,68,53,41,29.86,29.69,4,1,8,0.00
2013-9-18,78.5,68.3,56.3,43.4,38.3,31.4,57,35,22,29.90,29.81,5,2,8,0.00
2013-9-19,84.4,73.5,64.6,40.4,34.0,27.6,31,24,18,29.83,29.73,4,1,6,0.00
2013-9-20,79.3,70.3,59.1,54.0,39.5,25.4,80,36,14,29.74,29.68,6,2,14,0.00
2013-9-21,58.8,52.6,47.5,54.1,50.4,45.9,94,92,81,29.90,29.69,5,2,9,1.66
2013-9-22,62.1,54.0,45.8,52.6,47.8,44.2,94,80,61,30.02,29.90,2,0,5,0.01
2013-9-23,73.5,64.4,54.3,55.2,50.2,46.4,76,61,49,30.03,29.92,3,0,6,0.00
2013-9-24,67.2,61.4,50.9,54.7,49.8,42.3,89,66,56,29.92,29.79,4,1,10,0.09
2013-9-25,60.2,52.5,44.5,44.0,37.2,29.6,81,58,32,29.88,29.80,3,1,8,0.00
2013-9-26,63.7,55.2,44.9,41.7,32.7,26.5,62,43,29,30.03,29.85,5,1,7,0.00
2013-9-27,67.6,58.8,49.5,38.0,33.2,28.6,52,39,29,30.11,30.03,4,1,5,0.00
2013-9-28,71.9,63.2,54.2,42.6,34.8,28.9,48,35,23,30.10,29.98,5,1,10,0.00
2013-9-29,62.6,59.2,56.2,54.5,47.5,34.8,86,67,36,30.04,29.98,4,2,9,0.00
2013-9-30,61.7,58.2,55.5,58.5,55.1,53.0,93,90,85,30.04,29.95,5,2,9,0.12